レナード彗星

P/2020 S6 ( Leonard )

English version
Home page
Updated on June 14, 2021

---------------------------------------------------------------------

・ プロフィール

発見日 2020年9月29日
発見光度 20.5等
発見者 Gregory J. Leonard (Mount Lemmon Survey)

・ 写真集

・ 軌道要素

Epoch 2020 Nov. 7.0 TT = JDT 2459160.5
T 2020 Nov. 23.61056 TT                                 Rudenko
q   1.8748254            (2000.0)            P               Q
n   0.14437029     Peri.  176.65321     +0.50980656     -0.82711469
a   3.5987430      Node   242.57089     +0.78298049     +0.56004480
e   0.4790333      Incl.   15.45995     +0.35642506     -0.04723476
P   6.83
From 281 observations 2020 Aug. 28-2021 Feb. 13, mean residual 0".6.

・ 光度変化

        m1 = 10.0 + 5 logΔ + 30.0 log r

---------------------------------------------------------------------

軌道要素はM.P.E.C. 2021-L04に掲載されたものです。
光度グラフはComet for Windowsで作成したものです。

---------------------------------------------------------------------

Copyright(C) Seiichi Yoshida (comet@aerith.net). All rights reserved.